Location: Namasale
(1.5000°N, 32.6167°E)
Time: 16:41:44
(UTC+00:00)

Vanguard 2 Rocket - Visible Passes

Search period start: 19 April 2021 00:00
Search period end: 29 April 2021 00:00
Orbit: 553 x 3326 km, 32.9° (Epoch: 18 April)

Date Brightness Start Highest point End Pass type
(mag) Time Alt. Az. Time Alt. Az. Time Alt. Az.
19 Apr 9.9 16:01:10 10° NNW 16:13:37 23° NNE 16:22:36 10° ENE visible
19 Apr 8.6 18:19:28 10° NW 18:31:07 47° N 18:31:07 47° N visible
20 Apr 8.9 17:17:09 10° NW 17:30:58 37° NNE 17:34:58 29° ENE visible
20 Apr 9.5 19:35:27 10° WNW 19:40:46 28° WNW 19:40:46 28° WNW visible
21 Apr 9.6 16:14:35 10° NW 16:29:05 31° NNE 16:38:46 10° ENE visible
21 Apr 8.3 18:32:57 10° NW 18:44:38 62° NNW 18:44:38 62° NNW visible
22 Apr 8.4 17:30:25 10° NW 17:45:41 55° NNE 17:48:31 45° ENE visible
22 Apr 9.8 19:50:01 10° WNW 19:54:20 22° W 19:54:20 22° W visible
23 Apr 9.2 16:27:50 10° NW 16:44:08 43° NNE 16:52:25 18° E visible
23 Apr 8.5 18:46:54 10° WNW 18:58:14 58° W 18:58:14 58° W visible
24 Apr 8.1 17:43:58 10° NW 17:59:58 81° NE 18:02:09 63° ESE visible
24 Apr 10.1 20:05:31 10° W 20:07:58 15° W 20:07:58 15° W visible
25 Apr 8.9 16:41:11 10° NW 16:58:45 61° NNE 17:06:05 25° ESE visible
25 Apr 9.0 19:01:30 10° WNW 19:11:54 41° WSW 19:11:54 41° WSW visible
26 Apr 8.3 17:57:58 10° WNW 18:13:51 70° SW 18:15:51 60° SSE visible
27 Apr 9.3 03:17:43 10° SE 03:17:44 10° SE 03:17:45 10° SE visible
27 Apr 8.7 16:54:48 10° NW 17:12:56 85° NE 17:19:48 30° ESE visible
27 Apr 9.5 19:17:01 10° W 19:25:37 27° WSW 19:25:37 27° WSW visible
28 Apr 9.3 15:51:59 10° NW 16:11:18 66° NNE 16:23:31 10° ESE visible
28 Apr 8.8 18:12:36 10° WNW 18:27:27 47° SW 18:29:34 43° SSW visible
